Regional Weather Roundup
Issued by NWS Cleveland, OH

Home | Current Version | Previous Version | Text Only | Print | Product List | Glossary On
Versions: 1 2 3 4 5 6 7 8 9 10 11 12 13 14 15 16 17 18 19 20 21 22 23 24 25 26 27 28 29 30 31 32 33 34 35 36 37 38 39 40 41 42 43 44 45 46 47 48 49 50
000
ASUS41 KCLE 190512
RWRCLE
OHIO REGIONAL WEATHER ROUNDUP
NATIONAL WEATHER SERVICE WILMINGTON, OH
1200 AM EST WED DEC 19 2018

NOTE: "FAIR" INDICATES FEW OR NO CLOUDS BELOW 12,000 FEET WITH NO
SIGNIFICANT WEATHER AND/OR OBSTRUCTIONS TO VISIBILITY.

OHZ001>008-015>018-024>027-034-035-043-044-190600-
   NORTHWEST OHIO

CITY           SKY/WX    TMP DP  RH WIND       PRES   REMARKS
DEFIANCE       FAIR      25  21  85 CALM      30.09F
FINDLAY        FAIR      30  25  81 SE6       30.09F WCI  24
TOLEDO EXPRESS FAIR      27  22  81 S3        30.09F
TOLEDO EXEC    FAIR      27  23  85 SE7       30.10F WCI  19
LIMA           FAIR      30  26  85 S10       30.07F WCI  21
$$

OHZ009>014-019>023-028>033-038-089-190600-
   NORTHEAST OHIO

CITY           SKY/WX    TMP DP  RH WIND       PRES   REMARKS
CLE-HOPKINS    FAIR      29  23  78 S7        30.16S WCI  22
CLE-LAKEFRONT  FAIR      31  22  69 S7        30.13F WCI  24
CUY CO. ARPT   NOT AVBL
LORAIN-ELYRIA  FAIR      26  19  74 VRB3      30.13F
ASHTABULA      FAIR      25  22  88 S5        30.14F WCI  19
AKRON-CANTON   FAIR      27  20  75 S5        30.13F WCI  22
WOOSTER        FAIR      25  23  92 CALM      30.14R
MANSFIELD      FAIR      26  22  84 S7        30.11F WCI  18
YOUNGSTOWN     FAIR      28  21  75 S5        30.13S WCI  23
$$

OHZ042-051>053-060>062-070>072-077>081-190600-
  SOUTHWEST OHIO

CITY           SKY/WX    TMP DP  RH WIND       PRES   REMARKS
CINC-COVINGTON FAIR      34  26  72 SE3       30.10F
CINC-LUNKEN    FAIR      29  27  92 CALM      30.14F
HAMILTON       FAIR      27  22  81 CALM      30.14S
DAYTON         FAIR      29  25  85 SE8       30.10F WCI  21
WRIGHT-PAT AFB FAIR      29  25  82 CALM      30.10F
DAYTON GENERAL FAIR      33  26  75 SE6       30.09F WCI  28
WILMINGTON     FAIR      29  25  85 SE5       30.10F WCI  24
$$

OHZ036-037-039>041-045>050-054>059-063>069-073>076-082>088-190600-
  CENTRAL AND SOUTHEAST OHIO

CITY           SKY/WX    TMP DP  RH WIND       PRES   REMARKS
COLUMBUS       FAIR      29  24  82 CALM      30.12F
OSU AIRPORT    FAIR      28  25  88 CALM      30.12F
BOLTON FIELD   FAIR      27  26  96 CALM      30.13F
RICKENBACK AFB FAIR      26  24  93 CALM      30.13F
NEWARK         FAIR      26  22  84 CALM      30.12F
MARION         FAIR      27  23  85 S6        30.11F WCI  20
LANCASTER      FAIR      24  22  91 S3        30.13F
ZANESVILLE     FAIR      25  22  88 E3        30.14F
NEW PHILLY     FAIR      24  21  88 SE3       30.16S
$$




USA.gov is the U.S. government's official web portal to all federal, state and local government web resources and services.